Regional Weather Roundup
Issued by NWS Kansas City/Pleasant Hill, MO

Home | Current Version | Previous Version | Text Only | Print | Product List | Glossary On
Versions: 1 2 3 4 5 6 7 8 9 10 11 12 13 14 15 16 17 18 19 20 21 22 23 24 25 26 27 28 29 30 31 32 33 34 35 36 37 38 39 40 41 42 43 44 45 46 47 48 49 50
000
ASUS43 KEAX 192310
RWREAX

WEATHER ROUNDUP FOR EASTERN KANSAS AND NORTHWEST MISSOURI
NATIONAL WEATHER SERVICE KANSAS CITY/PLEASANT HILL MO
500 PM CST THU JAN 19 2017

KSZ040-057-103>105-MOZ028-029-037-043-200000-
...KANSAS CITY METROPOLITAN AREA...

CITY           SKY/WX    TMP DP  RH WIND       PRES   REMARKS
K.C. INTL      CLOUDY    48  43  82 S3        29.65F
K.C. DOWNTOWN  CLOUDY    50  46  86 S3        29.65F
LEES SUMMIT    CLOUDY    48  47  96 S6        29.66S
OLATHE - IXD   CLOUDY    48  46  93 SE5       29.65F
OLATHE - OJC   CLOUDY    46  46 100 SE3       29.65F
LAWRENCE       CLOUDY    48  46  93 E7        29.64F

$$

MOZ001>008-011>017-020>025-030>033-038>040-044>046-053-054-200000-
...NORTHERN AND CENTRAL MISSOURI...

CITY           SKY/WX    TMP DP  RH WIND       PRES   REMARKS
ST. JOSEPH     CLOUDY    47  46  97 S5        29.66F
MOSBY          CLOUDY    48  46  93 E5        29.66S
WARRENSBURG    CLOUDY    48  46  93 S3        29.66S FOG
WHITEMAN AFB   CLOUDY    50  50 100 CALM      29.65S
CLINTON        CLOUDY    50  50 100 CALM      29.66F FOG
SEDALIA        CLOUDY    51  47  86 SE6       29.68S
WARSAW         NOT AVBL
CHILLICOTHE      N/A     46  46 100 E3        29.69S
KIRKSVILLE     FOG       44  43  96 CALM      29.70F VSB 1/4

$$

MOZ041-047>049-056>058-063>065-088>090-097-200000-
...EASTERN AND SOUTHERN MISSOURI...

CITY           SKY/WX    TMP DP  RH WIND       PRES   REMARKS
ST. LOUIS INTL FOG       47  45  93 E8        29.71F VSB 1/2
SPIRIT OF STL  CLOUDY    47  47 100 SE3       29.71R FOG
COLUMBIA       FOG       48  47  96 CALM      29.68F VSB 1/2
JEFFERSON CITY CLOUDY    49  48  97 E3        29.68F FOG
ROLLA          FOG       50  50 100 E3        29.66F VSB 1/2
SPRINGFIELD    CLOUDY    53  50  89 S5        29.64F
BRANSON        MOCLDY    52  48  87 SE8       29.65F
JOPLIN         PTCLDY    52  47  83 S5        29.63F
WEST PLAINS    FOG       50  49  96 CALM      29.67F VSB 1/4

$$

IAZ060-094-KSZ022-034>040-054-083-096-NEZ052-066-093-200000-
...KANSAS...SOUTHEAST NEBRASKA AND IOWA...

CITY           SKY/WX    TMP DP  RH WIND       PRES   REMARKS
TOPEKA         CLOUDY    48  44  86 SE6       29.64F
MANHATTAN      LGT RAIN  47  44  90 E10       29.62F
EMPORIA        CLOUDY    46  45  96 SE10      29.62S FOG
CHANUTE        CLOUDY    51  45  79 SE9       29.63S
WICHITA        CLOUDY    49  44  83 SE9       29.59S
OMAHA          CLOUDY    42  38  85 SE6       29.66F FOG
LINCOLN        CLOUDY    42  42 100 CALM      29.66S FOG
FALLS CITY     CLOUDY    45  43  93 SE7       29.65S
LAMONI         FOG       43  43 100 E5        29.67F VSB 1/4
DES MOINES     FOG       39  38  96 SE8       29.71S VSB 3/4 WCI  33

$$




USA.gov is the U.S. government's official web portal to all federal, state and local government web resources and services.